| time (UTC) | temp F | wind direction | speed knots | gust knots | rain 1hr in | rain 24hr in | rain mn in | humidity % | barometer mb |
| 20260507031543 | 60 | 309 | 1.7 | 6.1 | 0.00 | 0.09 | 0.09 | 92 | 1015.5 |
| 20260507030041 | 60 | 300 | 2.6 | 8.7 | 0.00 | 0.09 | 0.09 | 91 | 1015.3 |
| 20260507024552 | 60 | 296 | 2.6 | 6.1 | 0.00 | 0.09 | 0.09 | 91 | 1015.3 |
| 20260507023048 | 60 | 313 | 1.7 | 5.2 | 0.00 | 0.09 | 0.09 | 91 | 1015.1 |
| 20260507021600 | 60 | 306 | 1.7 | 7.0 | 0.00 | 0.09 | 0.09 | 91 | 1015.1 |
| 20260507020105 | 60 | 307 | 3.5 | 7.8 | 0.00 | 0.09 | 0.09 | 90 | 1014.5 |
| 20260507014556 | 60 | 285 | 0.9 | 6.1 | 0.00 | 0.09 | 0.09 | 91 | 1014.8 |
| 20260507013050 | 60 | 305 | 1.7 | 5.2 | 0.00 | 0.09 | 0.09 | 91 | 1014.6 |
| 20260507011557 | 60 | 293 | 2.6 | 6.1 | 0.00 | 0.09 | 0.09 | 90 | 1014.1 |
| 20260507010047 | 60 | 286 | 1.7 | 6.1 | 0.00 | 0.09 | 0.09 | 90 | 1013.8 |
| 20260507004545 | 61 | 253 | 2.6 | 9.6 | 0.00 | 0.09 | 0.09 | 90 | 1013.8 |
| 20260507003041 | 61 | 263 | 2.6 | 7.8 | 0.00 | 0.09 | 0.09 | 90 | 1013.5 |
| 20260507001600 | 61 | 277 | 1.7 | 7.0 | 0.00 | 0.09 | 0.09 | 90 | 1013.8 |
| 20260507000106 | 61 | 265 | 0.9 | 7.8 | 0.00 | 0.09 | 0.09 | 89 | 1013.4 |
| 20260506234604 | 61 | 259 | 2.6 | 9.6 | 0.00 | 0.09 | 0.09 | 89 | 1013.2 |
| 20260506233049 | 61 | 285 | 3.5 | 8.7 | 0.00 | 0.09 | 0.09 | 89 | 1012.9 |
| 20260506231545 | 62 | 298 | 4.3 | 10.4 | 0.00 | 0.09 | 0.09 | 88 | 1012.9 |
| 20260506224542 | 63 | 238 | 3.5 | 10.4 | 0.00 | 0.09 | 0.09 | 87 | 1013.0 |
| 20260506223047 | 64 | 267 | 6.1 | 12.2 | 0.00 | 0.09 | 0.09 | 86 | 1012.8 |
| 20260506221555 | 64 | 287 | 3.5 | 11.3 | 0.00 | 0.09 | 0.09 | 86 | 1012.9 |
| 20260506220048 | 65 | 277 | 5.2 | 12.2 | 0.00 | 0.09 | 0.09 | 84 | 1012.9 |
| 20260506214602 | 66 | 268 | 2.6 | 12.2 | 0.00 | 0.09 | 0.09 | 84 | 1012.8 |
| 20260506213048 | 68 | 290 | 6.1 | 12.2 | 0.00 | 0.09 | 0.09 | 81 | 1012.7 |
| 20260506211548 | 70 | 252 | 4.3 | 11.3 | 0.00 | 0.09 | 0.09 | 80 | 1012.5 |
| 20260506210049 | 69 | 257 | 3.5 | 10.4 | 0.00 | 0.09 | 0.09 | 82 | 1012.8 |
| 20260506204547 | 69 | 233 | 3.5 | 10.4 | 0.00 | 0.09 | 0.09 | 82 | 1012.8 |
| 20260506203047 | 70 | 305 | 3.5 | 11.3 | 0.00 | 0.09 | 0.09 | 80 | 1012.8 |
| 20260506201545 | 72 | 200 | 3.5 | 12.2 | 0.00 | 0.09 | 0.09 | 80 | 1012.8 |
| 20260506200044 | 73 | 266 | 5.2 | 11.3 | 0.00 | 0.09 | 0.09 | 81 | 1012.8 |
| 20260506194549 | 73 | 289 | 3.5 | 10.4 | 0.00 | 0.09 | 0.09 | 82 | 1012.9 |
| 20260506193052 | 73 | 261 | 4.3 | 11.3 | 0.00 | 0.09 | 0.09 | 84 | 1012.8 |
| 20260506191548 | 73 | 269 | 4.3 | 10.4 | 0.00 | 0.09 | 0.09 | 87 | 1013.0 |
| 20260506190052 | 73 | 246 | 3.5 | 9.6 | 0.00 | 0.09 | 0.09 | 89 | 1013.0 |
| 20260506184558 | 73 | 259 | 0.9 | 7.0 | 0.00 | 0.09 | 0.09 | 93 | 1013.1 |
| 20260506183041 | 72 | 0 | 0.0 | 3.5 | 0.00 | 0.09 | 0.09 | 96 | 1012.9 |
| 20260506181556 | 71 | 249 | 0.0 | 5.2 | 0.02 | 0.09 | 0.09 | 97 | 1013.2 |
| 20260506180048 | 70 | 259 | 0.9 | 3.5 | 0.02 | 0.09 | 0.09 | 97 | 1013.1 |
| 20260506174545 | 69 | 0 | 0.0 | 1.7 | 0.02 | 0.09 | 0.09 | 97 | 1013.2 |
| 20260506173114 | 68 | 0 | 0.0 | 2.6 | 0.02 | 0.09 | 0.09 | 97 | 1013.4 |
| 20260506171545 | 67 | 336 | 2.6 | 7.0 | 0.00 | 0.07 | 0.07 | 96 | 1013.1 |
| 20260506170106 | 67 | 0 | 0.9 | 1.7 | 0.00 | 0.07 | 0.07 | 96 | 1013.2 |
| 20260506164548 | 66 | 262 | 1.7 | 3.5 | 0.00 | 0.07 | 0.07 | 96 | 1013.0 |
| 20260506163055 | 66 | 246 | 1.7 | 5.2 | 0.01 | 0.07 | 0.07 | 96 | 1013.1 |
| 20260506161547 | 66 | 264 | 1.7 | 6.1 | 0.05 | 0.07 | 0.07 | 95 | 1012.8 |
| 20260506160049 | 67 | 294 | 1.7 | 8.7 | 0.05 | 0.07 | 0.07 | 96 | 1012.8 |
| 20260506154607 | 67 | 329 | 5.2 | 10.4 | 0.05 | 0.07 | 0.07 | 96 | 1012.7 |
| 20260506153041 | 68 | 282 | 5.2 | 14.8 | 0.05 | 0.06 | 0.06 | 95 | 1012.7 |
| 20260506151546 | 72 | 198 | 0.0 | 2.6 | 0.02 | 0.02 | 0.02 | 98 | 1012.6 |
| 20260506150047 | 72 | 0 | 0.0 | 0.0 | 0.02 | 0.02 | 0.02 | 97 | 1012.1 |
| 20260506144553 | 72 | 0 | 0.0 | 0.0 | 0.02 | 0.02 | 0.02 | 97 | 1012.2 |
| 20260506143051 | 72 | 0 | 0.0 | 0.0 | 0.01 | 0.01 | 0.01 | 98 | 1012.2 |
| 20260506141544 | 72 | 0 | 0.0 | 0.0 | 0.00 | 0.00 | 0.00 | 98 | 1012.0 |
| 20260506140051 | 71 | 0 | 0.0 | 0.0 | 0.00 | 0.00 | 0.00 | 98 | 1011.9 |
| 20260506134547 | 71 | 0 | 0.0 | 0.9 | 0.00 | 0.00 | 0.00 | 97 | 1011.6 |
| 20260506133101 | 71 | 67 | 0.0 | 3.5 | 0.00 | 0.00 | 0.00 | 97 | 1010.7 |
| 20260506131547 | 71 | 61 | 0.9 | 4.3 | 0.00 | 0.00 | 0.00 | 97 | 1010.4 |
| 20260506130056 | 71 | 65 | 0.0 | 4.3 | 0.00 | 0.00 | 0.00 | 97 | 1010.3 |
| 20260506124548 | 71 | 57 | 1.7 | 5.2 | 0.00 | 0.00 | 0.00 | 97 | 1010.2 |
| 20260506123043 | 71 | 72 | 1.7 | 6.1 | 0.00 | 0.00 | 0.00 | 97 | 1010.0 |
| 20260506121541 | 71 | 139 | 2.6 | 8.7 | 0.00 | 0.00 | 0.00 | 97 | 1010.0 |
| 20260506120048 | 71 | 36 | 0.9 | 3.5 | 0.00 | 0.00 | 0.00 | 97 | 1009.9 |
| 20260506114550 | 71 | 53 | 0.9 | 4.3 | 0.00 | 0.00 | 0.00 | 97 | 1009.9 |
| 20260506113045 | 71 | 0 | 1.7 | 7.0 | 0.00 | 0.00 | 0.00 | 97 | 1010.0 |
| 20260506111544 | 71 | 65 | 0.9 | 5.2 | 0.00 | 0.00 | 0.00 | 97 | 1010.2 |
| 20260506110045 | 71 | 90 | 0.0 | 7.0 | 0.00 | 0.00 | 0.00 | 97 | 1010.3 |
| 20260506104606 | 71 | 68 | 0.9 | 7.8 | 0.00 | 0.00 | 0.00 | 97 | 1010.0 |
| 20260506103047 | 71 | 91 | 3.5 | 9.6 | 0.00 | 0.00 | 0.00 | 97 | 1010.1 |
| 20260506101549 | 71 | 47 | 2.6 | 7.8 | 0.00 | 0.00 | 0.00 | 97 | 1010.2 |
| 20260506100046 | 72 | 82 | 1.7 | 9.6 | 0.00 | 0.00 | 0.00 | 96 | 1010.0 |
| 20260506094544 | 72 | 98 | 1.7 | 7.0 | 0.00 | 0.00 | 0.00 | 96 | 1010.0 |
| 20260506093041 | 72 | 68 | 1.7 | 7.0 | 0.00 | 0.00 | 0.00 | 96 | 1010.0 |
| 20260506091541 | 72 | 85 | 2.6 | 7.8 | 0.00 | 0.00 | 0.00 | 96 | 1009.9 |
| 20260506090049 | 72 | 87 | 2.6 | 11.3 | 0.00 | 0.00 | 0.00 | 96 | 1009.8 |
| 20260506084547 | 72 | 99 | 3.5 | 9.6 | 0.00 | 0.00 | 0.00 | 95 | 1009.6 |
| 20260506083048 | 72 | 31 | 2.6 | 9.6 | 0.00 | 0.00 | 0.00 | 95 | 1009.5 |
| 20260506081545 | 72 | 60 | 2.6 | 8.7 | 0.00 | 0.00 | 0.00 | 95 | 1009.5 |
| 20260506073050 | 73 | 79 | 5.2 | 11.3 | 0.00 | 0.00 | 0.00 | 93 | 1009.7 |
| 20260506071547 | 73 | 97 | 5.2 | 13.9 | 0.00 | 0.00 | 0.00 | 93 | 1009.9 |
| 20260506061547 | 74 | 119 | 2.6 | 8.7 | 0.00 | 0.00 | 0.00 | 93 | 1010.3 |
| 20260506044603 | 71 | 0 | 0.0 | 0.0 | 0.00 | 0.00 | 0.00 | 91 | 1010.3 |
| 20260506043055 | 71 | 0 | 0.0 | 0.0 | 0.00 | 0.00 | 0.00 | 90 | 1010.2 |
| 20260506041548 | 72 | 0 | 0.0 | 0.0 | 0.00 | 0.00 | 0.00 | 89 | 1010.1 |
| 20260506040051 | 72 | 0 | 0.0 | 0.0 | 0.00 | 0.00 | 0.00 | 89 | 1009.9 |
| 20260506034544 | 73 | 0 | 0.0 | 0.0 | 0.00 | 0.00 | 0.00 | 88 | 1009.7 |
| 20260506033048 | 74 | 0 | 0.0 | 0.0 | 0.00 | 0.00 | 0.00 | 87 | 1009.6 |